Bareilly — A8KG7 — position and weather

sailwx.info

Track history (hours):
 
Tides and Currents Weather Stations Pressure Air Temp Water Temp Dewpoint Dewpoint Depression Visibility Wind Speed Wind Dir Waves Ship Positions

Bareilly

Last reported at 2014-Jul-23 07:06 UTC. Time now 2014-Jul-23 07:48 UTC.
Position N 55°12' E 006°16'.

Length 243 m; draft 8.2 m.

Type: Ship. MMSI: 636013054.

Date/timePositionNaut miles runAvg speedWind from/ knotsBaromVisibWave heightAir tempDewpointWater temp
2014-Jul-23 07:06N 55°12' E 006°16'713.8
2014-Jul-23 06:34N 55°05' E 006°10'1413.8
2014-Jul-23 05:33N 54°52' E 006°00'1813.9
2014-Jul-23 04:17N 54°37' E 005°46'1014.0
2014-Jul-23 03:33N 54°29' E 005°33'1413.9
2014-Jul-23 02:33N 54°20' E 005°17'1413.6
2014-Jul-23 01:33N 54°10' E 005°01'1313.3
2014-Jul-23 00:33N 54°00' E 004°45'1313.0
2014-Jul-22 23:33N 53°51' E 004°29'1312.7
2014-Jul-22 22:33N 53°42' E 004°13'1312.8
2014-Jul-22 21:33N 53°35' E 003°56'1212.4
2014-Jul-22 20:33N 53°26' E 003°41'1212.5
2014-Jul-22 19:33N 53°14' E 003°33'1212.1
2014-Jul-22 18:33N 53°03' E 003°26'1211.7
2014-Jul-22 17:33N 52°52' E 003°19'1211.8
2014-Jul-22 16:33N 52°42' E 003°09'1212.0
2014-Jul-22 15:33N 52°31' E 002°59'1412.8
2014-Jul-22 14:27N 52°19' E 002°48'1713.1
2014-Jul-22 13:07N 52°02' E 002°41'813.7
2014-Jul-22 12:33N 51°55' E 002°41'1313.1
2014-Jul-22 11:33N 51°43' E 002°30'1413.5
2014-Jul-22 10:33N 51°32' E 002°19'1313.3
2014-Jul-22 09:33N 51°21' E 002°07'1312.8
2014-Jul-22 08:33N 51°11' E 001°55'1413.6
2014-Jul-22 07:33N 51°02' E 001°39'1313.3
2014-Jul-22 06:33N 50°51' E 001°26'1313.0
2014-Jul-22 05:33N 50°39' E 001°16'1413.9
2014-Jul-22 04:33N 50°30' E 001°00'1614.3
2014-Jul-22 03:26N 50°26' E 000°36'1214.1
2014-Jul-22 02:33N 50°22' E 000°17'4212.9
2014-Jul-21 23:18N 50°11' W 000°46'912.0
2014-Jul-21 22:33N 50°09' W 000°60'1211.7
2014-Jul-21 21:30N 50°07' W 001°18'1111.7
2014-Jul-21 20:33N 50°04' W 001°35'312.0
2014-Jul-21 20:18N 50°03' W 001°40'912.3
2014-Jul-21 19:33N 49°59' W 001°53'1413.3
2014-Jul-21 18:28N 49°55' W 002°14'  
2014-Jul-19 04:30N 38°11' W 009°41'1313.4
2014-Jul-19 03:33N 37°59' W 009°37'1413.5
2014-Jul-19 02:33N 37°45' W 009°34'1313.4
2014-Jul-19 01:33N 37°32' W 009°31'5112.8
2014-Jul-18 21:33N 36°44' W 009°07'1313.0
2014-Jul-18 20:33N 36°43' W 008°52'1313.2
2014-Jul-18 19:33N 36°44' W 008°35'1312.9
2014-Jul-18 18:33N 36°45' W 008°19'1212.3
2014-Jul-18 17:33N 36°46' W 008°04'1212.0
2014-Jul-18 16:33N 36°47' W 007°49'1212.2
2014-Jul-18 15:33N 36°48' W 007°34'1312.7
2014-Jul-18 14:33N 36°49' W 007°18'  
2014-Jul-15 20:32N 36°51' W 006°52'0 0.2
2014-Jul-15 19:23N 36°51' W 006°52'  
Track history (hours):
 
Tides and Currents Weather Stations Pressure Air Temp Water Temp Dewpoint Dewpoint Depression Visibility Wind Speed Wind Dir Waves Ship Positions

Bareilly

Last reported at 2014-Jul-23 07:06 UTC. Time now 2014-Jul-23 07:48 UTC.
Position N 55°12' E 006°16'.

Length 243 m; draft 8.2 m.

Type: Ship. MMSI: 636013054.

Date/timePositionNaut miles runAvg speedWind from/ knotsBaromVisibWave heightAir tempDewpointWater temp
2014-Jul-23 07:06N 55°12' E 006°16'713.8
2014-Jul-23 06:34N 55°05' E 006°10'1413.8
2014-Jul-23 05:33N 54°52' E 006°00'1813.9
2014-Jul-23 04:17N 54°37' E 005°46'1014.0
2014-Jul-23 03:33N 54°29' E 005°33'1413.9
2014-Jul-23 02:33N 54°20' E 005°17'1413.6
2014-Jul-23 01:33N 54°10' E 005°01'1313.3
2014-Jul-23 00:33N 54°00' E 004°45'1313.0
2014-Jul-22 23:33N 53°51' E 004°29'1312.7
2014-Jul-22 22:33N 53°42' E 004°13'1312.8
2014-Jul-22 21:33N 53°35' E 003°56'1212.4
2014-Jul-22 20:33N 53°26' E 003°41'1212.5
2014-Jul-22 19:33N 53°14' E 003°33'1212.1
2014-Jul-22 18:33N 53°03' E 003°26'1211.7
2014-Jul-22 17:33N 52°52' E 003°19'1211.8
2014-Jul-22 16:33N 52°42' E 003°09'1212.0
2014-Jul-22 15:33N 52°31' E 002°59'1412.8
2014-Jul-22 14:27N 52°19' E 002°48'1713.1
2014-Jul-22 13:07N 52°02' E 002°41'813.7
2014-Jul-22 12:33N 51°55' E 002°41'1313.1
2014-Jul-22 11:33N 51°43' E 002°30'1413.5
2014-Jul-22 10:33N 51°32' E 002°19'1313.3
2014-Jul-22 09:33N 51°21' E 002°07'1312.8
2014-Jul-22 08:33N 51°11' E 001°55'1413.6
2014-Jul-22 07:33N 51°02' E 001°39'1313.3
2014-Jul-22 06:33N 50°51' E 001°26'1313.0
2014-Jul-22 05:33N 50°39' E 001°16'1413.9
2014-Jul-22 04:33N 50°30' E 001°00'1614.3
2014-Jul-22 03:26N 50°26' E 000°36'1214.1
2014-Jul-22 02:33N 50°22' E 000°17'4212.9
2014-Jul-21 23:18N 50°11' W 000°46'912.0
2014-Jul-21 22:33N 50°09' W 000°60'1211.7
2014-Jul-21 21:30N 50°07' W 001°18'1111.7
2014-Jul-21 20:33N 50°04' W 001°35'312.0
2014-Jul-21 20:18N 50°03' W 001°40'912.3
2014-Jul-21 19:33N 49°59' W 001°53'1413.3
2014-Jul-21 18:28N 49°55' W 002°14'  
2014-Jul-19 04:30N 38°11' W 009°41'1313.4
2014-Jul-19 03:33N 37°59' W 009°37'1413.5
2014-Jul-19 02:33N 37°45' W 009°34'1313.4
2014-Jul-19 01:33N 37°32' W 009°31'5112.8
2014-Jul-18 21:33N 36°44' W 009°07'1313.0
2014-Jul-18 20:33N 36°43' W 008°52'1313.2
2014-Jul-18 19:33N 36°44' W 008°35'1312.9
2014-Jul-18 18:33N 36°45' W 008°19'1212.3
2014-Jul-18 17:33N 36°46' W 008°04'1212.0
2014-Jul-18 16:33N 36°47' W 007°49'1212.2
2014-Jul-18 15:33N 36°48' W 007°34'1312.7
2014-Jul-18 14:33N 36°49' W 007°18'  
2014-Jul-15 20:32N 36°51' W 006°52'0 0.2
2014-Jul-15 19:23N 36°51' W 006°52'  

Dump ship's entire track history